JAL9021 ROAH-PANC

Flight info

Callsign JAL9021
Flight time N/A
Altitude 33000
Route AMAMI Y25 MOMPA M750 IMPAL Y755 CARDS DCT HIOTI DCT CBE Y121 SWING Y88 DAIGO Y889 OATIS OTR3 PUTER/N0488F340 A590 PUGAL/N0487F350 DCT AKISU DCT 50N170E DCT WALLT DCT EXAMY DCT CHUUK DCT EHM DCT HAMND DCT AMOTT T223 GASTO J511 TED AMOTT4
Aircraft B77W/H-SDE1E2E3FGHIJ2J3J4J5M1RWXY/LB1D1

Departure

Time 2026-04-20 13:34
Airport Naha International Airport (ROAH)

Arrival

Time N/A
Airport Ted Stevens Anchorage International Airport (PANC)
Time Latitude Longitude Altitude Speed Heading
2026-04-20 13:10 26.21154 127.64960 33 ft 0 kts 87°
2026-04-20 13:21 26.21154 127.64958 33 ft 2 kts 87°
2026-04-20 13:21 26.21154 127.64939 11 ft 2 kts 87°
2026-04-20 13:21 26.21153 127.64921 15 ft 2 kts 87°
2026-04-20 13:21 26.21152 127.64903 33 ft 2 kts 87°
2026-04-20 13:22 26.21151 127.64884 33 ft 2 kts 88°
2026-04-20 13:22 26.21151 127.64866 33 ft 2 kts 88°
2026-04-20 13:22 26.21150 127.64848 33 ft 2 kts 88°
2026-04-20 13:22 26.21150 127.64829 33 ft 2 kts 88°
2026-04-20 13:23 26.21149 127.64811 33 ft 2 kts 89°
2026-04-20 13:23 26.21149 127.64792 33 ft 2 kts 90°
2026-04-20 13:23 26.21148 127.64774 33 ft 2 kts 100°
2026-04-20 13:23 26.21155 127.64757 29 ft 2 kts 136°
2026-04-20 13:24 26.21169 127.64747 32 ft 2 kts 165°
2026-04-20 13:24 26.21185 127.64745 32 ft 2 kts 176°
2026-04-20 13:24 26.21202 127.64744 32 ft 2 kts 177°
2026-04-20 13:24 26.21218 127.64743 32 ft 2 kts 176°
2026-04-20 13:25 26.21224 127.64742 32 ft 0 kts 176°
2026-04-20 13:27 26.21222 127.64743 32 ft 2 kts 176°
2026-04-20 13:27 26.21184 127.64746 31 ft 10 kts 176°
2026-04-20 13:27 26.21100 127.64751 33 ft 13 kts 177°
2026-04-20 13:28 26.21014 127.64742 33 ft 13 kts 200°
2026-04-20 13:28 26.20928 127.64730 33 ft 13 kts 177°
2026-04-20 13:28 26.20827 127.64736 33 ft 16 kts 177°
2026-04-20 13:28 26.20698 127.64743 33 ft 20 kts 177°
2026-04-20 13:29 26.20543 127.64750 33 ft 24 kts 178°
2026-04-20 13:29 26.20378 127.64757 33 ft 24 kts 178°
2026-04-20 13:29 26.20213 127.64764 33 ft 24 kts 178°
2026-04-20 13:29 26.20050 127.64772 33 ft 24 kts 178°
2026-04-20 13:30 26.19875 127.64780 33 ft 31 kts 177°
2026-04-20 13:30 26.19635 127.64792 33 ft 34 kts 177°
2026-04-20 13:30 26.19401 127.64803 33 ft 33 kts 177°
2026-04-20 13:30 26.19162 127.64814 33 ft 37 kts 178°
2026-04-20 13:31 26.18913 127.64826 33 ft 35 kts 178°
2026-04-20 13:31 26.18676 127.64837 33 ft 33 kts 178°
2026-04-20 13:31 26.18453 127.64848 33 ft 29 kts 178°
2026-04-20 13:31 26.18320 127.64854 33 ft 11 kts 177°
2026-04-20 13:32 26.18251 127.64821 33 ft 12 kts 236°
2026-04-20 13:32 26.18243 127.64731 32 ft 12 kts 270°
2026-04-20 13:32 26.18243 127.64685 30 ft 2 kts 270°
2026-04-20 13:32 26.18245 127.64659 30 ft 4 kts 286°
2026-04-20 13:33 26.18271 127.64649 30 ft 4 kts 356°
2026-04-20 13:33 26.18302 127.64647 31 ft 6 kts 358°
2026-04-20 13:33 26.18422 127.64642 31 ft 34 kts 358°
2026-04-20 13:33 26.18891 127.64615 34 ft 103 kts 356°
2026-04-20 13:34 26.19825 127.64572 30 ft 163 kts 358°
2026-04-20 13:34 26.21053 127.64514 335 ft 182 kts 356°
2026-04-20 13:34 26.22334 127.64416 912 ft 180 kts 356°
2026-04-20 13:34 26.23600 127.64340 1043 ft 177 kts 357°
2026-04-20 13:35 26.24839 127.64304 1312 ft 180 kts 358°
2026-04-20 13:35 26.26079 127.63954 1534 ft 197 kts 332°
2026-04-20 13:35 26.27355 127.63124 1602 ft 227 kts 332°
2026-04-20 13:35 26.28753 127.62233 2133 ft 236 kts 332°
2026-04-20 13:36 26.30200 127.61314 2786 ft 242 kts 331°
2026-04-20 13:36 26.31649 127.60397 3739 ft 242 kts 331°
2026-04-20 13:36 26.33143 127.59453 4511 ft 251 kts 330°
2026-04-20 13:36 26.34680 127.58482 5334 ft 255 kts 330°
2026-04-20 13:37 26.36240 127.57499 6173 ft 260 kts 330°
2026-04-20 13:37 26.37830 127.56498 6925 ft 265 kts 330°
2026-04-20 13:37 26.39451 127.55477 7718 ft 268 kts 329°
2026-04-20 13:37 26.41091 127.54445 8493 ft 273 kts 329°
2026-04-20 13:38 26.42768 127.53389 9248 ft 278 kts 329°
2026-04-20 13:38 26.44466 127.52399 9992 ft 283 kts 336°
2026-04-20 13:38 26.46355 127.51614 10484 ft 297 kts 340°
2026-04-20 13:38 26.48397 127.50868 10662 ft 324 kts 340°
2026-04-20 13:39 26.50657 127.50055 10927 ft 357 kts 340°
2026-04-20 13:39 26.53073 127.49213 11572 ft 368 kts 346°
2026-04-20 13:39 26.55667 127.49153 12375 ft 383 kts 10°
2026-04-20 13:39 26.58164 127.50323 13231 ft 398 kts 32°
2026-04-20 13:40 26.60311 127.52332 14005 ft 408 kts 42°
2026-04-20 13:40 26.61681 127.53801 14476 ft 414 kts 43°
2026-04-20 13:40 26.63732 127.56061 15511 ft 415 kts 44°
2026-04-20 13:40 26.65796 127.58365 16311 ft 423 kts 44°
2026-04-20 13:41 26.68580 127.61473 17447 ft 429 kts 44°
2026-04-20 13:41 26.70019 127.63072 18009 ft 433 kts 44°
2026-04-20 13:41 26.72150 127.65432 18745 ft 438 kts 43°
2026-04-20 13:41 26.75055 127.68632 19671 ft 444 kts 43°
2026-04-20 13:42 26.77272 127.71067 20352 ft 449 kts 43°
2026-04-20 13:42 26.81047 127.75209 21391 ft 459 kts 43°
2026-04-20 13:42 26.83348 127.77732 21997 ft 465 kts 43°
2026-04-20 13:43 26.86323 127.80996 22755 ft 472 kts 42°
2026-04-20 13:43 26.91059 127.86199 23865 ft 482 kts 42°
2026-04-20 13:43 26.95826 127.91446 24829 ft 490 kts 42°
2026-04-20 13:43 27.02416 127.98710 26132 ft 499 kts 42°
2026-04-20 13:44 27.12437 128.09779 27872 ft 512 kts 41°
2026-04-20 13:44 27.22723 128.21171 29313 ft 525 kts 41°
2026-04-20 13:44 27.33284 128.32718 30538 ft 533 kts 40°
2026-04-20 13:44 27.42902 128.43165 31962 ft 527 kts 41°
2026-04-20 13:45 27.45504 128.46076 32364 ft 525 kts 41°
2026-04-20 13:45 27.48058 128.48948 32749 ft 523 kts 41°
2026-04-20 13:45 27.50631 128.51843 32996 ft 525 kts 41°
2026-04-20 13:45 27.53233 128.54769 33028 ft 531 kts 41°
2026-04-20 13:46 27.58514 128.60701 33047 ft 540 kts 41°
2026-04-20 13:46 27.63874 128.66724 33049 ft 544 kts 40°
2026-04-20 13:47 27.69670 128.72031 33047 ft 536 kts 28°
2026-04-20 13:47 27.76078 128.76228 33060 ft 531 kts 24°
2026-04-20 13:48 27.82530 128.80324 33062 ft 531 kts 25°
2026-04-20 13:48 27.88964 128.84467 33061 ft 531 kts 25°
2026-04-20 13:49 27.95333 128.88614 33057 ft 531 kts 25°
2026-04-20 13:49 28.01736 128.92799 33059 ft 531 kts 25°
2026-04-20 13:50 28.08146 128.96991 33049 ft 531 kts 25°
2026-04-20 13:50 28.14558 129.01186 33049 ft 531 kts 25°
2026-04-20 13:51 28.20933 129.05363 33051 ft 531 kts 25°
2026-04-20 13:51 28.27335 129.09562 33059 ft 531 kts 25°
2026-04-20 13:52 28.33744 129.13773 33049 ft 532 kts 25°
2026-04-20 13:52 28.40155 129.17991 33052 ft 532 kts 25°
2026-04-20 13:53 28.46521 129.22185 33050 ft 532 kts 25°
2026-04-20 13:53 28.52935 129.26417 33044 ft 532 kts 25°
2026-04-20 13:54 28.59317 129.30634 33045 ft 532 kts 25°
2026-04-20 13:54 28.65709 129.34864 33045 ft 531 kts 25°
2026-04-20 13:55 28.72115 129.39109 33045 ft 531 kts 25°
2026-04-20 13:55 28.78459 129.43319 33042 ft 530 kts 25°
2026-04-20 13:56 28.84838 129.47557 33036 ft 530 kts 25°
2026-04-20 13:56 28.91205 129.51794 33040 ft 530 kts 25°
2026-04-20 13:57 28.97572 129.56037 33036 ft 529 kts 25°
2026-04-20 13:57 29.03937 129.60285 33038 ft 529 kts 25°
2026-04-20 13:58 29.10273 129.64519 33036 ft 529 kts 25°
2026-04-20 13:58 29.16636 129.68776 33033 ft 529 kts 25°
2026-04-20 13:59 29.22996 129.73038 33029 ft 529 kts 25°
2026-04-20 13:59 29.27943 129.76358 33031 ft 530 kts 25°
2026-04-20 14:00 29.34326 129.80647 33026 ft 530 kts 25°
2026-04-20 14:00 29.40693 129.84933 33029 ft 531 kts 25°
2026-04-20 14:01 29.47024 129.89199 33029 ft 532 kts 25°
2026-04-20 14:01 29.53415 129.93514 33030 ft 533 kts 25°
2026-04-20 14:02 29.59814 129.97839 33027 ft 533 kts 25°
2026-04-20 14:02 29.66214 130.02172 33025 ft 534 kts 25°
2026-04-20 14:03 29.72627 130.06520 33029 ft 535 kts 25°
2026-04-20 14:03 29.79004 130.10850 33018 ft 535 kts 25°
2026-04-20 14:04 29.85434 130.15224 33024 ft 536 kts 25°
2026-04-20 14:04 29.91853 130.19596 33020 ft 536 kts 25°
2026-04-20 14:05 29.98244 130.23956 33021 ft 536 kts 25°
2026-04-20 14:05 30.04328 130.28111 33020 ft 536 kts 25°
2026-04-20 14:06 30.10753 130.32507 33019 ft 536 kts 25°
2026-04-20 14:06 30.17178 130.36910 33020 ft 536 kts 25°
2026-04-20 14:07 30.23597 130.41314 33024 ft 536 kts 25°
2026-04-20 14:07 30.29974 130.45696 33010 ft 536 kts 25°
2026-04-20 14:08 30.36388 130.50111 33037 ft 536 kts 25°
2026-04-20 14:08 30.42814 130.54542 33012 ft 536 kts 25°
2026-04-20 14:09 30.49192 130.58947 33030 ft 535 kts 25°
2026-04-20 14:09 30.55591 130.63373 33013 ft 534 kts 25°
2026-04-20 14:10 30.61975 130.67794 33024 ft 534 kts 25°
2026-04-20 14:10 30.68324 130.72197 33015 ft 534 kts 25°
2026-04-20 14:11 30.74706 130.76631 33025 ft 534 kts 25°
2026-04-20 14:11 30.81086 130.81071 33020 ft 534 kts 25°
2026-04-20 14:12 30.87461 130.85513 33012 ft 534 kts 25°
2026-04-20 14:12 30.93787 130.89929 33011 ft 533 kts 25°
2026-04-20 14:13 31.00162 130.94386 33012 ft 533 kts 25°
2026-04-20 14:13 31.06529 130.98845 33007 ft 533 kts 25°
2026-04-20 14:14 31.12859 131.03284 33007 ft 533 kts 25°
2026-04-20 14:14 31.19225 131.07757 33000 ft 533 kts 25°
2026-04-20 14:15 31.25582 131.12229 33002 ft 532 kts 25°
2026-04-20 14:15 31.31919 131.16696 33007 ft 532 kts 25°
2026-04-20 14:16 31.38227 131.21148 32990 ft 531 kts 25°
2026-04-20 14:16 31.44561 131.25626 33004 ft 531 kts 25°
2026-04-20 14:17 31.50891 131.30109 32999 ft 530 kts 25°
2026-04-20 14:17 31.57034 131.34617 32985 ft 535 kts 31°
2026-04-20 14:18 31.62435 131.40756 32994 ft 548 kts 46°
2026-04-20 14:18 31.66628 131.48330 32984 ft 555 kts 55°
2026-04-20 14:19 31.70504 131.56209 32980 ft 556 kts 55°
2026-04-20 14:19 31.74409 131.64046 32978 ft 556 kts 55°
2026-04-20 14:20 31.78352 131.71816 32976 ft 556 kts 54°
2026-04-20 14:20 31.82319 131.79605 32981 ft 556 kts 54°
2026-04-20 14:21 31.86290 131.87432 32984 ft 556 kts 54°
2026-04-20 14:21 31.90249 131.95264 32979 ft 556 kts 54°
2026-04-20 14:22 31.94185 132.03069 32978 ft 556 kts 55°
2026-04-20 14:22 31.98132 132.10912 32977 ft 556 kts 55°
2026-04-20 14:23 32.02082 132.18775 32976 ft 557 kts 55°
2026-04-20 14:23 32.05999 132.26589 32975 ft 557 kts 55°
2026-04-20 14:24 32.09940 132.34469 32975 ft 557 kts 55°
2026-04-20 14:24 32.13777 132.42421 32971 ft 559 kts 58°
2026-04-20 14:25 32.17277 132.50640 32972 ft 560 kts 60°
2026-04-20 14:25 32.20687 132.58836 32971 ft 560 kts 59°
2026-04-20 14:26 32.24149 132.67093 32971 ft 560 kts 59°
2026-04-20 14:26 32.27629 132.75342 32972 ft 560 kts 59°
2026-04-20 14:27 32.31104 132.83588 32965 ft 560 kts 59°
2026-04-20 14:27 32.33986 132.90448 32967 ft 560 kts 59°
2026-04-20 14:28 32.37451 132.98719 32972 ft 560 kts 59°
2026-04-20 14:28 32.40905 133.06984 32966 ft 560 kts 59°
2026-04-20 14:29 32.44334 133.15206 32969 ft 560 kts 59°
2026-04-20 14:29 32.47776 133.23481 32975 ft 560 kts 59°
2026-04-20 14:30 32.51216 133.31769 32972 ft 560 kts 59°
2026-04-20 14:30 32.54647 133.40055 32971 ft 560 kts 60°
2026-04-20 14:31 32.58085 133.48354 32974 ft 560 kts 59°
2026-04-20 14:31 32.61519 133.56576 32975 ft 560 kts 59°
2026-04-20 14:32 32.64961 133.64868 32978 ft 560 kts 60°
2026-04-20 14:32 32.68367 133.73213 32974 ft 561 kts 60°
2026-04-20 14:33 32.71763 133.81568 32982 ft 561 kts 60°
2026-04-20 14:33 32.75140 133.89876 32967 ft 561 kts 60°
2026-04-20 14:34 32.78527 133.98222 32969 ft 561 kts 60°
2026-04-20 14:34 32.81872 134.06621 32973 ft 563 kts 63°
2026-04-20 14:35 32.84396 134.15487 32975 ft 567 kts 70°
2026-04-20 14:35 32.86558 134.24525 32971 ft 567 kts 71°
2026-04-20 14:36 32.88734 134.33497 32968 ft 567 kts 70°
2026-04-20 14:36 32.90967 134.42510 32970 ft 567 kts 70°
2026-04-20 14:37 32.93205 134.51523 32969 ft 567 kts 70°
2026-04-20 14:37 32.95414 134.60479 32971 ft 566 kts 70°
2026-04-20 14:38 32.97628 134.69499 32967 ft 566 kts 70°
2026-04-20 14:38 32.99835 134.78516 32967 ft 565 kts 70°
2026-04-20 14:39 33.02013 134.87468 32967 ft 565 kts 70°
2026-04-20 14:39 33.04191 134.96469 32967 ft 565 kts 70°
2026-04-20 14:40 33.06366 135.05486 32970 ft 564 kts 70°
2026-04-20 14:40 33.08646 135.14435 32966 ft 559 kts 63°
2026-04-20 14:41 33.10415 135.18520 32973 ft 551 kts 52°
2026-04-20 14:41 33.12647 135.22121 32983 ft 544 kts 43°
2026-04-20 14:41 33.18230 135.27969 32992 ft 528 kts 29°
2026-04-20 14:42 33.24215 135.33134 32977 ft 531 kts 30°
2026-04-20 14:42 33.30116 135.38405 32977 ft 533 kts 31°
2026-04-20 14:43 33.36041 135.43782 32975 ft 534 kts 31°
2026-04-20 14:43 33.41982 135.49171 32976 ft 534 kts 31°
2026-04-20 14:44 33.47877 135.54531 32974 ft 534 kts 31°
2026-04-20 14:44 33.53790 135.59919 32986 ft 534 kts 31°
2026-04-20 14:45 33.59706 135.65318 32973 ft 533 kts 31°
2026-04-20 14:45 33.65611 135.70717 32970 ft 533 kts 31°
2026-04-20 14:46 33.71491 135.76066 32982 ft 532 kts 30°
2026-04-20 14:46 33.77412 135.81408 32981 ft 532 kts 30°
2026-04-20 14:47 33.83340 135.86781 32976 ft 531 kts 30°
2026-04-20 14:48 33.92174 135.94795 32990 ft 532 kts 30°
2026-04-20 14:48 33.98110 136.00175 32986 ft 533 kts 30°
2026-04-20 14:49 34.04003 136.05533 32984 ft 533 kts 30°
2026-04-20 14:49 34.09926 136.10928 32986 ft 534 kts 30°
2026-04-20 14:50 34.15870 136.16349 32977 ft 537 kts 30°
2026-04-20 14:50 34.21831 136.21799 32975 ft 536 kts 30°
2026-04-20 14:51 34.27761 136.27195 32992 ft 535 kts 30°
2026-04-20 14:51 34.33727 136.32625 32977 ft 536 kts 30°
2026-04-20 14:52 34.39679 136.38064 32964 ft 536 kts 30°
2026-04-20 14:52 34.45640 136.43503 32965 ft 536 kts 30°
2026-04-20 14:53 34.51614 136.48923 32956 ft 536 kts 30°
2026-04-20 14:53 34.55769 136.52700 32963 ft 536 kts 30°
2026-04-20 14:54 34.60238 136.56773 32960 ft 536 kts 30°
2026-04-20 14:54 34.66204 136.62221 32960 ft 536 kts 30°
2026-04-20 14:55 34.72125 136.67670 32964 ft 536 kts 30°
2026-04-20 14:55 34.78068 136.73154 32970 ft 536 kts 30°
2026-04-20 14:56 34.84022 136.78653 32971 ft 537 kts 30°
2026-04-20 14:56 34.90028 136.84056 32969 ft 535 kts 28°
2026-04-20 14:57 34.96160 136.89202 32967 ft 535 kts 27°
2026-04-20 14:57 35.02299 136.94355 32964 ft 536 kts 28°
2026-04-20 14:58 35.08392 136.99548 32969 ft 537 kts 28°
2026-04-20 14:58 35.14527 137.04813 32976 ft 538 kts 28°
2026-04-20 14:59 35.20624 137.10052 32982 ft 539 kts 28°
2026-04-20 14:59 35.26764 137.15332 32969 ft 539 kts 28°
2026-04-20 15:00 35.32914 137.20630 32978 ft 539 kts 28°
2026-04-20 15:00 35.38501 137.26898 32981 ft 554 kts 45°
2026-04-20 15:01 35.42636 137.34976 32985 ft 567 kts 62°
2026-04-20 15:01 35.45741 137.43795 33006 ft 566 kts 62°
2026-04-20 15:02 35.49050 137.52558 32995 ft 566 kts 60°
2026-04-20 15:02 35.52407 137.61299 33009 ft 566 kts 60°
2026-04-20 15:03 35.55736 137.70059 33013 ft 565 kts 61°
2026-04-20 15:03 35.59025 137.78766 33008 ft 564 kts 61°
2026-04-20 15:04 35.62263 137.87563 33000 ft 564 kts 62°
2026-04-20 15:04 35.65431 137.96366 33015 ft 563 kts 62°
2026-04-20 15:05 35.68658 138.05153 33020 ft 563 kts 60°
2026-04-20 15:05 35.72041 138.13865 33017 ft 564 kts 60°
2026-04-20 15:06 35.75421 138.22590 33016 ft 564 kts 60°
2026-04-20 15:06 35.78735 138.31268 33010 ft 560 kts 60°
2026-04-20 15:07 35.82069 138.39966 33020 ft 561 kts 60°
2026-04-20 15:07 35.85405 138.48685 33017 ft 563 kts 60°
2026-04-20 15:08 35.88744 138.57442 33011 ft 563 kts 61°
2026-04-20 15:08 35.92051 138.66154 33015 ft 563 kts 61°
2026-04-20 15:09 35.95368 138.74934 33018 ft 563 kts 61°
2026-04-20 15:09 35.98670 138.83702 32984 ft 563 kts 61°
2026-04-20 15:10 36.01952 138.92421 33017 ft 562 kts 61°
2026-04-20 15:10 36.05253 139.01204 33021 ft 563 kts 61°
2026-04-20 15:11 36.08542 139.09998 33009 ft 563 kts 62°
2026-04-20 15:11 36.11635 139.18287 33004 ft 563 kts 62°
2026-04-20 15:12 36.14364 139.25617 33008 ft 563 kts 62°
2026-04-20 15:12 36.18752 139.35393 32984 ft 554 kts 50°
2026-04-20 15:13 36.22548 139.41756 32998 ft 551 kts 48°
2026-04-20 15:13 36.27131 139.49394 33009 ft 551 kts 49°
2026-04-20 15:14 36.31652 139.57097 32995 ft 552 kts 49°
2026-04-20 15:14 36.36147 139.64825 32999 ft 552 kts 49°
2026-04-20 15:15 36.40619 139.72499 33005 ft 552 kts 49°
2026-04-20 15:15 36.45151 139.80229 32994 ft 552 kts 49°
2026-04-20 15:16 36.49660 139.87959 32997 ft 553 kts 50°
2026-04-20 15:16 36.53888 139.95942 32990 ft 555 kts 53°
2026-04-20 15:17 36.58088 140.04004 32981 ft 554 kts 52°
2026-04-20 15:17 36.62331 140.12016 32981 ft 554 kts 52°
2026-04-20 15:18 36.66560 140.20045 32988 ft 553 kts 52°
2026-04-20 15:18 36.70768 140.28065 32976 ft 553 kts 52°
2026-04-20 15:19 36.74827 140.36149 32979 ft 555 kts 58°
2026-04-20 15:19 36.78067 140.44905 32993 ft 557 kts 63°
2026-04-20 15:20 36.81140 140.53815 32993 ft 557 kts 63°
2026-04-20 15:20 36.84246 140.62684 32990 ft 557 kts 63°
2026-04-20 15:21 36.87364 140.71481 32987 ft 557 kts 63°
2026-04-20 15:21 36.90499 140.80344 32984 ft 557 kts 63°
2026-04-20 15:22 36.93621 140.89216 32985 ft 556 kts 63°
2026-04-20 15:22 36.96713 140.98029 32977 ft 556 kts 63°
2026-04-20 15:23 36.99805 141.06892 32980 ft 556 kts 63°
2026-04-20 15:23 37.02886 141.15764 32978 ft 555 kts 63°
2026-04-20 15:24 37.05958 141.24634 32980 ft 554 kts 63°
2026-04-20 15:24 37.09022 141.33504 32978 ft 554 kts 63°
2026-04-20 15:25 37.12073 141.42360 32980 ft 553 kts 63°
2026-04-20 15:25 37.15118 141.51224 32981 ft 553 kts 64°
2026-04-20 15:26 37.18133 141.60028 32981 ft 552 kts 64°
2026-04-20 15:26 37.21156 141.68881 32982 ft 552 kts 64°
2026-04-20 15:27 37.24175 141.77752 32982 ft 552 kts 64°
2026-04-20 15:27 37.27185 141.86620 32986 ft 551 kts 64°
2026-04-20 15:28 37.30185 141.95487 32990 ft 551 kts 64°
2026-04-20 15:28 37.33156 142.04295 32992 ft 551 kts 64°
2026-04-20 15:29 37.36140 142.13166 32993 ft 550 kts 64°
2026-04-20 15:29 37.39112 142.22030 32992 ft 549 kts 64°
2026-04-20 15:30 37.42079 142.30904 32997 ft 549 kts 64°
2026-04-20 15:30 37.45015 142.39714 32998 ft 548 kts 64°
2026-04-20 15:31 37.47955 142.48562 32994 ft 547 kts 64°
2026-04-20 15:31 37.50891 142.57425 33003 ft 547 kts 64°
2026-04-20 15:32 37.53796 142.66221 33005 ft 547 kts 64°
2026-04-20 15:32 37.56706 142.75082 33004 ft 546 kts 65°
2026-04-20 15:33 37.59551 142.83983 33011 ft 546 kts 65°
2026-04-20 15:33 37.62361 142.92839 33009 ft 546 kts 65°
2026-04-20 15:34 37.65197 143.01764 33016 ft 546 kts 65°
2026-04-20 15:34 37.68023 143.10671 33016 ft 546 kts 65°
2026-04-20 15:35 37.70818 143.19521 33017 ft 545 kts 65°
2026-04-20 15:35 37.73625 143.28457 33018 ft 545 kts 65°
2026-04-20 15:36 37.76402 143.37324 33019 ft 545 kts 65°
2026-04-20 15:36 37.79189 143.46252 33026 ft 545 kts 65°
2026-04-20 15:37 37.81964 143.55172 33026 ft 544 kts 66°
2026-04-20 15:37 37.84498 143.64218 33030 ft 545 kts 68°
2026-04-20 15:38 37.86861 143.73284 33029 ft 544 kts 68°
2026-04-20 15:38 37.89251 143.82387 33032 ft 543 kts 68°
2026-04-20 15:39 37.91651 143.91389 33018 ft 541 kts 68°
2026-04-20 15:39 37.94069 144.00432 33027 ft 540 kts 68°
2026-04-20 15:40 37.96469 144.09451 33045 ft 540 kts 68°
2026-04-20 15:40 37.98860 144.18478 33047 ft 539 kts 68°
2026-04-20 15:41 38.01225 144.27442 33035 ft 539 kts 68°
2026-04-20 15:41 38.03603 144.36491 33039 ft 539 kts 68°
2026-04-20 15:42 38.05971 144.45529 33045 ft 539 kts 68°
2026-04-20 15:42 38.08314 144.54507 33044 ft 538 kts 68°
2026-04-20 15:43 38.10661 144.63530 33047 ft 537 kts 68°
2026-04-20 15:43 38.12997 144.72545 33049 ft 536 kts 68°
2026-04-20 15:44 38.15320 144.81541 33054 ft 535 kts 68°
2026-04-20 15:44 38.17634 144.90535 33057 ft 534 kts 68°
2026-04-20 15:45 38.19921 144.99458 33057 ft 533 kts 68°
2026-04-20 15:45 38.22209 145.08414 33061 ft 532 kts 68°
2026-04-20 15:46 38.24495 145.17393 33065 ft 532 kts 68°
2026-04-20 15:46 38.26769 145.26359 33073 ft 532 kts 68°
2026-04-20 15:47 38.29018 145.35262 33070 ft 532 kts 68°
2026-04-20 15:47 38.31289 145.44257 33073 ft 530 kts 67°
2026-04-20 15:48 38.34548 145.52478 33085 ft 519 kts 51°
2026-04-20 15:48 38.39252 145.59317 33079 ft 509 kts 38°
2026-04-20 15:49 38.44517 145.65394 33085 ft 510 kts 37°
2026-04-20 15:49 38.49792 145.71485 33077 ft 511 kts 38°
2026-04-20 15:50 38.55035 145.77641 33086 ft 512 kts 38°
2026-04-20 15:50 38.60264 145.83840 33085 ft 512 kts 38°
2026-04-20 15:51 38.65460 145.90022 33077 ft 512 kts 38°
2026-04-20 15:51 38.70682 145.96243 33080 ft 512 kts 38°
2026-04-20 15:52 38.75901 146.02469 33085 ft 512 kts 39°
2026-04-20 15:52 38.81077 146.08655 33080 ft 512 kts 39°
2026-04-20 15:53 38.88889 146.18018 33083 ft 511 kts 39°
2026-04-20 15:53 38.94088 146.24265 33082 ft 511 kts 39°
2026-04-20 15:54 38.99260 146.30493 33086 ft 511 kts 39°
2026-04-20 15:54 39.04454 146.36761 33081 ft 511 kts 39°
2026-04-20 15:55 39.09638 146.43028 33084 ft 511 kts 39°
2026-04-20 15:55 39.14820 146.49309 33091 ft 511 kts 39°
2026-04-20 15:56 39.20014 146.55616 33093 ft 512 kts 39°
2026-04-20 15:56 39.25162 146.61881 33090 ft 512 kts 39°
2026-04-20 15:57 39.30347 146.68205 33092 ft 512 kts 39°
2026-04-20 15:57 39.34654 146.73468 33100 ft 512 kts 39°
2026-04-20 15:58 39.40668 146.80833 33104 ft 512 kts 40°
2026-04-20 15:58 39.44974 146.86117 33101 ft 512 kts 40°
2026-04-20 15:59 39.50142 146.92471 33104 ft 512 kts 40°
2026-04-20 15:59 39.56151 146.99879 33108 ft 512 kts 40°
2026-04-20 16:00 39.60478 147.05222 33106 ft 512 kts 40°
2026-04-20 16:00 39.65613 147.11576 33118 ft 513 kts 40°
2026-04-20 16:01 39.70774 147.17977 33117 ft 512 kts 40°
2026-04-20 16:01 39.75932 147.24391 33116 ft 511 kts 40°
2026-04-20 16:02 39.81040 147.30754 33115 ft 511 kts 40°
2026-04-20 16:02 39.86180 147.37171 33116 ft 512 kts 40°
2026-04-20 16:03 39.91330 147.43614 33121 ft 513 kts 40°
2026-04-20 16:03 39.96488 147.50081 33123 ft 515 kts 40°
2026-04-20 16:04 40.01621 147.56533 33128 ft 515 kts 41°
2026-04-20 16:04 40.06802 147.63058 33128 ft 516 kts 41°
2026-04-20 16:05 40.11940 147.69545 33129 ft 517 kts 41°
2026-04-20 16:05 40.17115 147.76092 33130 ft 517 kts 41°
2026-04-20 16:06 40.22263 147.82620 33133 ft 517 kts 41°
2026-04-20 16:06 40.27435 147.89193 33133 ft 517 kts 41°
2026-04-20 16:07 40.32598 147.95768 33135 ft 518 kts 41°
2026-04-20 16:07 40.37767 148.02366 33138 ft 518 kts 41°
2026-04-20 16:08 40.42931 148.08972 33140 ft 518 kts 41°
2026-04-20 16:08 40.48069 148.15561 33140 ft 518 kts 41°
2026-04-20 16:09 40.53227 148.22191 33144 ft 519 kts 41°
2026-04-20 16:09 40.58383 148.28833 33146 ft 519 kts 41°
2026-04-20 16:10 40.63536 148.35486 33145 ft 519 kts 41°
2026-04-20 16:10 40.68703 148.42171 33134 ft 519 kts 41°
2026-04-20 16:11 40.73821 148.48810 33134 ft 519 kts 41°
2026-04-20 16:11 40.78976 148.55511 33148 ft 519 kts 41°
2026-04-20 16:12 40.84103 148.62192 33154 ft 519 kts 41°
2026-04-20 16:12 40.89248 148.68912 33166 ft 519 kts 41°
2026-04-20 16:13 40.94388 148.75641 33160 ft 519 kts 42°
2026-04-20 16:13 40.99493 148.82340 33156 ft 519 kts 42°
2026-04-20 16:14 41.04622 148.89087 33157 ft 519 kts 42°
2026-04-20 16:14 41.09745 148.95838 33166 ft 519 kts 42°
2026-04-20 16:15 41.14858 149.02600 33163 ft 519 kts 42°
2026-04-20 16:15 41.19967 149.09377 33166 ft 519 kts 42°
2026-04-20 16:16 41.25051 149.16136 33163 ft 519 kts 42°
2026-04-20 16:16 41.30155 149.22938 33168 ft 519 kts 42°
2026-04-20 16:17 41.35252 149.29746 33166 ft 519 kts 42°
2026-04-20 16:17 41.40322 149.36534 33175 ft 519 kts 42°
2026-04-20 16:18 41.45419 149.43374 33170 ft 519 kts 42°
2026-04-20 16:18 41.50485 149.50189 33172 ft 519 kts 42°
2026-04-20 16:19 41.55577 149.57054 33174 ft 519 kts 42°
2026-04-20 16:19 41.60672 149.63941 33173 ft 520 kts 42°
2026-04-20 16:20 41.65722 149.70781 33185 ft 520 kts 42°
2026-04-20 16:20 41.70805 149.77685 33174 ft 520 kts 42°
2026-04-20 16:21 41.75887 149.84602 33176 ft 521 kts 42°
2026-04-20 16:21 41.80938 149.91495 33184 ft 521 kts 41°
2026-04-20 16:22 41.86025 149.98451 33180 ft 522 kts 41°
2026-04-20 16:22 41.91115 150.05431 33187 ft 522 kts 41°
2026-04-20 16:23 41.96173 150.12383 33186 ft 523 kts 41°
2026-04-20 16:23 42.01257 150.19387 33189 ft 523 kts 41°
2026-04-20 16:24 42.06350 150.26421 33191 ft 524 kts 41°
2026-04-20 16:24 42.11435 150.33462 33194 ft 524 kts 41°
2026-04-20 16:25 42.16500 150.40491 33194 ft 525 kts 41°
2026-04-20 16:25 42.21592 150.47576 33202 ft 526 kts 41°
2026-04-20 16:26 42.26680 150.54673 33198 ft 526 kts 41°
2026-04-20 16:26 42.31770 150.61790 33203 ft 527 kts 41°
2026-04-20 16:27 42.36836 150.68891 33206 ft 527 kts 41°
2026-04-20 16:27 42.41936 150.76057 33209 ft 528 kts 41°
2026-04-20 16:28 42.47041 150.83243 33027 ft 526 kts 44°
2026-04-20 16:28 42.52067 150.90343 33168 ft 524 kts 44°
2026-04-20 16:29 42.57118 150.97497 33205 ft 525 kts 44°
2026-04-20 16:29 42.62171 151.04669 33208 ft 526 kts 44°
2026-04-20 16:30 42.67243 151.11885 33205 ft 528 kts 44°
2026-04-20 16:30 42.72314 151.19119 33212 ft 529 kts 44°
2026-04-20 16:31 42.77386 151.26373 33214 ft 529 kts 44°
2026-04-20 16:31 42.82465 151.33655 33214 ft 529 kts 44°
2026-04-20 16:32 42.87501 151.40894 33219 ft 530 kts 43°
2026-04-20 16:32 42.92574 151.48205 33218 ft 530 kts 43°
2026-04-20 16:33 42.97649 151.55537 33221 ft 531 kts 43°
2026-04-20 16:33 43.02717 151.62878 33224 ft 531 kts 43°
2026-04-20 16:34 43.07762 151.70205 33227 ft 532 kts 43°
2026-04-20 16:34 43.12841 151.77599 33229 ft 532 kts 43°
2026-04-20 16:35 43.17916 151.85007 33225 ft 533 kts 43°
2026-04-20 16:35 43.22993 151.92438 33228 ft 534 kts 43°
2026-04-20 16:36 43.28039 151.99843 33232 ft 534 kts 43°
2026-04-20 16:36 43.33124 152.07324 33232 ft 535 kts 43°
2026-04-20 16:37 43.38211 152.14828 33236 ft 535 kts 43°
2026-04-20 16:37 43.43255 152.22288 33229 ft 536 kts 43°
2026-04-20 16:38 43.48337 152.29825 33238 ft 536 kts 43°
2026-04-20 16:38 43.53407 152.37364 33245 ft 536 kts 43°
2026-04-20 16:39 43.58480 152.44926 33237 ft 537 kts 43°
2026-04-20 16:39 43.63556 152.52514 33236 ft 537 kts 43°
2026-04-20 16:40 43.68596 152.60068 33244 ft 537 kts 43°
2026-04-20 16:40 43.73662 152.67681 33243 ft 538 kts 43°
2026-04-20 16:41 43.78729 152.75317 33242 ft 538 kts 43°
2026-04-20 16:41 43.83764 152.82925 33243 ft 539 kts 43°
2026-04-20 16:42 43.88834 152.90606 33244 ft 539 kts 43°
2026-04-20 16:42 43.93897 152.98298 33244 ft 539 kts 43°
2026-04-20 16:43 43.98932 153.05967 33247 ft 540 kts 42°
2026-04-20 16:43 44.03997 153.13704 33242 ft 540 kts 42°
2026-04-20 16:44 44.09052 153.21447 33241 ft 540 kts 42°
2026-04-20 16:44 44.14081 153.29170 33242 ft 541 kts 42°
2026-04-20 16:45 44.19129 153.36945 33247 ft 541 kts 42°
2026-04-20 16:45 44.23321 153.43418 33245 ft 541 kts 42°
2026-04-20 16:46 44.28362 153.51220 33248 ft 541 kts 42°
2026-04-20 16:46 44.33396 153.59034 33246 ft 541 kts 42°
2026-04-20 16:47 44.39246 153.68143 33249 ft 541 kts 41°
2026-04-20 16:47 44.43464 153.74727 33251 ft 541 kts 41°
2026-04-20 16:48 44.48451 153.82533 33248 ft 541 kts 41°
2026-04-20 16:48 44.53471 153.90414 33257 ft 541 kts 41°
2026-04-20 16:49 44.58487 153.98308 33251 ft 542 kts 41°
2026-04-20 16:49 44.63506 154.06231 33242 ft 542 kts 41°
2026-04-20 16:50 44.68509 154.14150 33247 ft 542 kts 41°
2026-04-20 16:50 44.73483 154.22047 33253 ft 542 kts 41°
2026-04-20 16:51 44.78487 154.30013 33249 ft 542 kts 41°
2026-04-20 16:51 44.83450 154.37935 33251 ft 542 kts 41°
2026-04-20 16:52 44.88062 154.46469 33238 ft 553 kts 50°
2026-04-20 16:52 44.92096 154.55746 33249 ft 555 kts 52°
2026-04-20 16:53 44.96055 154.65028 33247 ft 555 kts 51°
2026-04-20 16:53 45.00072 154.74347 33247 ft 555 kts 51°
2026-04-20 16:54 45.04119 154.83667 33246 ft 555 kts 51°
2026-04-20 16:54 45.08138 154.92932 33244 ft 555 kts 50°
2026-04-20 16:55 45.12169 155.02263 33239 ft 555 kts 50°
2026-04-20 16:55 45.16161 155.11546 33247 ft 555 kts 50°
2026-04-20 16:56 45.20174 155.20912 33241 ft 555 kts 50°
2026-04-20 16:56 45.24156 155.30234 33243 ft 555 kts 50°
2026-04-20 16:57 45.28155 155.39625 33236 ft 555 kts 50°
2026-04-20 16:57 45.32142 155.49020 33234 ft 555 kts 50°
2026-04-20 16:58 45.36122 155.58432 33234 ft 555 kts 50°
2026-04-20 16:58 45.40101 155.67871 33233 ft 555 kts 50°
2026-04-20 16:59 45.44059 155.77292 33232 ft 555 kts 50°
2026-04-20 16:59 45.47990 155.86681 33233 ft 555 kts 50°
2026-04-20 17:00 45.53917 156.00898 33221 ft 555 kts 50°
2026-04-20 17:01 45.57861 156.10397 33218 ft 555 kts 50°
2026-04-20 17:01 45.61765 156.19831 33227 ft 555 kts 50°
2026-04-20 17:02 45.65695 156.29362 33223 ft 555 kts 50°
2026-04-20 17:02 45.69606 156.38878 33221 ft 554 kts 50°
2026-04-20 17:03 45.73482 156.48344 33211 ft 554 kts 50°
2026-04-20 17:03 45.77374 156.57879 33216 ft 554 kts 50°
2026-04-20 17:04 45.81254 156.67417 33212 ft 554 kts 50°
2026-04-20 17:04 45.85136 156.76993 33210 ft 554 kts 50°
2026-04-20 17:05 45.88976 156.86498 33208 ft 554 kts 50°
2026-04-20 17:05 45.92834 156.96081 33209 ft 554 kts 50°
2026-04-20 17:06 45.96690 157.05692 33204 ft 554 kts 50°
2026-04-20 17:06 46.00539 157.15320 33186 ft 554 kts 50°
2026-04-20 17:07 46.04369 157.24933 33187 ft 554 kts 50°
2026-04-20 17:07 46.08174 157.34518 33190 ft 554 kts 50°
2026-04-20 17:08 46.12011 157.44215 33188 ft 555 kts 50°
2026-04-20 17:08 46.15810 157.53853 33182 ft 555 kts 50°
2026-04-20 17:09 46.19621 157.63556 33180 ft 555 kts 50°
2026-04-20 17:09 46.23432 157.73291 33180 ft 556 kts 50°
2026-04-20 17:10 46.27205 157.82963 33174 ft 556 kts 50°
2026-04-20 17:10 46.30992 157.92706 33163 ft 556 kts 50°
2026-04-20 17:11 46.34771 158.02463 33170 ft 556 kts 50°
2026-04-20 17:11 46.38560 158.12283 33174 ft 556 kts 50°
2026-04-20 17:12 46.42307 158.22026 33172 ft 557 kts 50°
2026-04-20 17:12 46.46077 158.31868 33165 ft 557 kts 49°
2026-04-20 17:13 46.49835 158.41712 33166 ft 557 kts 49°
2026-04-20 17:13 46.53557 158.51498 33161 ft 557 kts 49°
2026-04-20 17:14 46.57303 158.61381 33160 ft 557 kts 49°
2026-04-20 17:14 46.61032 158.71257 33159 ft 557 kts 49°
2026-04-20 17:15 46.64732 158.81092 33152 ft 557 kts 49°
2026-04-20 17:15 46.68445 158.90999 33144 ft 556 kts 49°
2026-04-20 17:16 46.72146 159.00908 33141 ft 556 kts 49°
2026-04-20 17:16 46.75835 159.10821 33138 ft 556 kts 49°
2026-04-20 17:17 46.79515 159.20750 33131 ft 555 kts 49°
2026-04-20 17:17 46.83164 159.30629 33126 ft 555 kts 49°
2026-04-20 17:18 46.86821 159.40566 33121 ft 554 kts 49°
2026-04-20 17:18 46.90468 159.50516 33118 ft 554 kts 49°
2026-04-20 17:19 46.94077 159.60396 33114 ft 553 kts 49°
2026-04-20 17:19 46.97697 159.70341 33112 ft 552 kts 49°
2026-04-20 17:20 47.01299 159.80276 33102 ft 552 kts 49°
2026-04-20 17:20 47.04870 159.90161 33104 ft 552 kts 49°
2026-04-20 17:21 47.08458 160.00130 33098 ft 552 kts 49°
2026-04-20 17:21 47.12038 160.10115 33098 ft 552 kts 49°
2026-04-20 17:22 47.15605 160.20103 33090 ft 552 kts 49°
2026-04-20 17:22 47.19166 160.30109 33076 ft 552 kts 50°
2026-04-20 17:23 47.22720 160.40138 33080 ft 552 kts 50°
2026-04-20 17:23 47.26246 160.50124 33076 ft 552 kts 50°
2026-04-20 17:24 47.29786 160.60187 33069 ft 551 kts 50°
2026-04-20 17:24 47.33303 160.70225 33063 ft 550 kts 51°
2026-04-20 17:25 47.36793 160.80222 33057 ft 550 kts 51°
2026-04-20 17:25 47.40282 160.90254 33054 ft 549 kts 51°
2026-04-20 17:26 47.43764 161.00305 33043 ft 548 kts 52°
2026-04-20 17:26 47.47231 161.10350 33038 ft 548 kts 52°
2026-04-20 17:27 47.50662 161.20333 33028 ft 547 kts 52°
2026-04-20 17:27 47.54105 161.30380 33027 ft 547 kts 53°
2026-04-20 17:28 47.57526 161.40468 33025 ft 547 kts 53°
2026-04-20 17:28 47.60874 161.50515 33016 ft 547 kts 54°
2026-04-20 17:29 47.64237 161.60660 33009 ft 547 kts 54°
2026-04-20 17:29 47.67584 161.70782 33001 ft 546 kts 54°
2026-04-20 17:30 47.70927 161.80912 32990 ft 546 kts 55°
2026-04-20 17:30 47.74260 161.91050 32980 ft 545 kts 55°
2026-04-20 17:31 47.77560 162.01129 32982 ft 545 kts 55°
2026-04-20 17:31 47.80310 162.09556 32982 ft 545 kts 56°
2026-04-20 17:32 47.83609 162.19706 32975 ft 544 kts 56°
2026-04-20 17:32 47.86900 162.29875 32964 ft 544 kts 56°
2026-04-20 17:33 47.90181 162.40048 32957 ft 543 kts 56°